Probability
0 0 0 0 0 0 0 0 0 0 0 0 0 0 0 0 0 0 0 0 0 0 0 0 0 0 0 0 0 0 0 0 0 0 0 0 0 0
0 0 0 0 0 0 0 0 0 0 0 0 0 0 0 0 0 0 0 0 0 0 0 0 0 0 0 0 0 0 0 0 0 0 0 0 0 0
0 0 0 0 0 0 0 0 0 0 0 0 0 0 0 0 0 0 0 0 0 0 0 0 0 0 0 0 0 0 0 0 0 0 0 0 0 0
0 0 0 0 0 0 0 0 0 0 0 0 0 0 0 0 0 0 0 0 0 0 0 0 0 0 0 0 0 0 0 0 0 0 0 0 0 0
0 0 0 0 0 0 0 0 0 0 0 0 0 0 0 0 0 0 0 0 0 0 0 0 0 0 0 0 0 0 0 0 0 0 0 0 0 0
0 0 0 0 0 0 0 0 0 0 0 0 0 0 0 0 0 0 0 0 0 0 0 0 0 0 0 0 0 0 0 0 0 0 0 0 0 0
0 0 0 0 0 0 0 0 0 0 0 0 0 0 0 0 0 0 0 0 0 0 0 0 0 0 0 0 0 0 0 0 0 0 0 0 0 0
0 0 0 0 0 0 0 0 0 0 0 0 0 0 0 0 0 0 0 0 0 0 0 0 0 0 0 0 0 0 0 0 0 0 0 0 0 0
0 0 0 0 0 0 0 0 0 0 0 0 0 0 0 0 0 0 0 0 0 0 0 0 0 0 0 0 0 0 0 0 0 0 0 0 0 0
0 0 0 0 0 0 0 0 0 0 0 0 0 0 0 0 0 0 0 0 0 0 0 0 0 0 0 0 0 0 0 0 0 0 0 0 0 0
0 0 0 0 0 0 0 0 0 0 0 0 0 0 0 0 0 0 0 0 0 0 0 0 0 0 0 0 0 0 0 0 0 0 0 0 0 0
0 0 0 0 0 0 0 0 0 0 0 0 0 0 0 0 0 0 0 0 0 0 0 0 0 0 0 0 0 0 0 0 0 0 0 0 0 0
0 0 0 0 0 0 0 0 0 0 0 0 0 0 0 0 0 0 0 0 0 0 0 0 0 0 0 0 0 0 0 0 0 0 0 0 0 0
0 0 0 0 0 0 0 0 0 0 0 0 0 0 0 0 0 0 0 0 0 0 0 0 0 0 0 0 0 0 0 0 0 0 0 0 0 0
0 0 0 0 0 0 0 0 0 0 0 0 0 0 0 0 0 0 0 0 0 0 0 0 0 0 0 0 0 0 0 0 0 0 0 0 0 0
0 0 0 0 0 0 0 0 0 0 0 0 0 0 0 0 0 0 0 0 0 0 0 0 0 0 0 0 0 0 0 0 0 0 0 0 0 0
0 0 0 0 0 0 0 0 0 0 0 0 0 0 0 0 0 0 0 0 0 0 0 0 0 0 0 0 0 0 0 0 0 0 0 0 0 0
0 0 0 0 0 0 0 0 0 0 0 0 0 0 0 0 0 0 0 0 0 0 0 0 0 0 0 0 0 0 0 0 0 0 0 0 0 0
0 0 0 0 0 0 0 0 0 0 0 0 0 0 0 0 0 0 0 0 0 0 0 0 0 0 0 0 0 0 0 0 0 0 0 0 0 0
0 0 0 0 0 0 0 0 0 0 0 0 0 0 0 0 0 0 0 0 0 0 0 0 0 0 0 0 0 0 0 0 0 0 0 0 0 0
0 0 0 0 0 0 0 0 0 0 0 0 0 0 0 0 0 0 0 0 0 0 0 0 0 0 0 0 0 0 0 0 0 0 0 0 0 0
0 0 0 0 0 0 0 0 0 0 0 0 0 0 0 0 0 0 0 0 0 0 0 0 0 0 0 0 0 0 0 0 0 0 0 0 0 0
0 0 0 0 0 0 0 0 0 0 0 0 0 0 0 0 0 0 0 0 0 0 0 0 0 0 0 0 0 0 0 0 0 0 0 0 0 0
Height
5655 5654 5654 5654 5653 5653 5653 5653 5654 5656 5660 5662 5661 5662 5662 5664 5666 5667 5669 5671 5673 5675 5678 5680 5682 5684 5686 5688 5691 5693 5695 5697 5699 5701 5703 5705 5706 5708
5645 5644 5643 5642 5642 5641 5640 5640 5640 5642 5645 5647 5647 5647 5647 5649 5651 5652 5654 5656 5658 5660 5662 5665 5667 5670 5672 5674 5677 5680 5682 5685 5687 5689 5692 5694 5696 5698
5635 5634 5632 5631 5630 5629 5628 5627 5627 5627 5629 5631 5631 5631 5632 5633 5635 5636 5638 5640 5642 5644 5646 5649 5651 5654 5657 5660 5663 5665 5668 5671 5674 5677 5679 5682 5684 5687
5624 5623 5621 5620 5618 5616 5614 5613 5612 5612 5613 5615 5615 5615 5616 5617 5618 5620 5622 5623 5624 5626 5629 5631 5634 5637 5640 5644 5647 5650 5654 5657 5660 5663 5667 5670 5672 5675
5613 5611 5609 5607 5605 5603 5602 5600 5598 5597 5597 5598 5599 5599 5599 5599 5601 5602 5604 5605 5607 5608 5610 5613 5616 5620 5623 5627 5631 5634 5638 5642 5646 5649 5652 5656 5659 5662
5601 5599 5597 5595 5593 5591 5588 5586 5585 5583 5581 5581 5582 5582 5582 5582 5582 5584 5585 5586 5588 5590 5592 5595 5598 5602 5605 5610 5614 5618 5622 5626 5630 5634 5637 5641 5645 5648
5589 5587 5584 5582 5579 5577 5574 5572 5570 5567 5565 5564 5563 5563 5563 5563 5563 5564 5565 5568 5569 5571 5573 5576 5579 5583 5586 5590 5595 5599 5604 5608 5613 5618 5622 5626 5630 5634
5576 5573 5570 5567 5564 5561 5559 5556 5553 5551 5548 5547 5545 5544 5544 5543 5543 5544 5545 5547 5551 5553 5553 5557 5559 5563 5567 5572 5577 5581 5586 5590 5595 5600 5605 5609 5614 5618
5563 5559 5556 5552 5549 5545 5542 5539 5535 5532 5530 5528 5526 5525 5524 5524 5523 5524 5523 5525 5528 5531 5532 5537 5539 5542 5547 5552 5557 5562 5566 5571 5576 5581 5586 5592 5597 5602
5548 5544 5540 5536 5531 5528 5524 5520 5516 5512 5509 5507 5505 5504 5502 5500 5500 5500 5501 5503 5506 5508 5509 5514 5517 5521 5526 5530 5535 5540 5545 5551 5556 5562 5567 5573 5579 5585
5533 5528 5523 5519 5514 5510 5506 5501 5497 5492 5488 5485 5482 5480 5478 5477 5476 5476 5477 5479 5483 5485 5486 5489 5494 5497 5503 5509 5513 5518 5523 5529 5535 5541 5548 5554 5560 5566
5518 5512 5506 5500 5495 5489 5484 5480 5476 5471 5467 5463 5460 5457 5455 5453 5452 5451 5451 5453 5456 5461 5462 5464 5468 5472 5479 5486 5490 5494 5499 5506 5512 5519 5526 5533 5540 5546
5501 5494 5488 5481 5475 5468 5462 5457 5453 5449 5445 5441 5438 5435 5432 5430 5428 5427 5426 5427 5430 5434 5436 5438 5442 5446 5451 5461 5467 5471 5476 5482 5489 5496 5503 5511 5518 5526
5484 5477 5470 5463 5456 5449 5442 5437 5432 5427 5423 5419 5416 5412 5410 5407 5405 5404 5403 5403 5404 5408 5410 5411 5416 5421 5426 5433 5442 5448 5452 5458 5465 5472 5480 5488 5496 5504
5468 5461 5453 5445 5438 5431 5424 5418 5412 5407 5402 5398 5394 5391 5388 5385 5383 5381 5380 5380 5382 5384 5386 5387 5391 5396 5402 5409 5417 5423 5429 5434 5441 5448 5456 5465 5474 5482
5452 5444 5436 5428 5421 5413 5406 5400 5394 5388 5383 5379 5374 5371 5367 5365 5363 5361 5361 5361 5362 5364 5364 5366 5369 5373 5379 5386 5393 5400 5405 5412 5420 5426 5434 5443 5452 5461
5436 5428 5420 5412 5404 5397 5390 5383 5377 5371 5365 5360 5356 5352 5349 5346 5344 5342 5341 5341 5342 5344 5346 5346 5349 5353 5358 5365 5371 5378 5384 5391 5399 5406 5413 5422 5432 5441
5421 5413 5405 5397 5389 5382 5375 5368 5361 5354 5349 5344 5339 5335 5332 5329 5326 5324 5322 5322 5323 5325 5327 5329 5331 5335 5340 5346 5353 5359 5365 5372 5380 5387 5394 5403 5414 5423
5406 5398 5390 5382 5375 5367 5360 5353 5347 5340 5334 5329 5325 5321 5317 5313 5310 5307 5305 5305 5306 5308 5310 5312 5315 5319 5324 5330 5337 5342 5348 5356 5363 5370 5378 5387 5398 5408
5392 5384 5377 5369 5362 5354 5347 5340 5334 5328 5322 5317 5312 5308 5303 5299 5296 5294 5292 5292 5293 5294 5296 5298 5301 5305 5310 5317 5323 5329 5334 5341 5348 5357 5364 5373 5382 5392
5380 5372 5364 5357 5350 5343 5336 5329 5323 5317 5311 5305 5301 5296 5292 5288 5285 5283 5281 5281 5281 5282 5284 5287 5290 5293 5298 5303 5309 5316 5322 5328 5336 5344 5352 5360 5369 5378
5368 5360 5353 5346 5339 5332 5325 5319 5313 5307 5301 5295 5291 5286 5282 5279 5276 5274 5273 5272 5272 5273 5275 5277 5279 5283 5288 5293 5299 5305 5312 5318 5325 5333 5341 5350 5359 5369
5358 5350 5343 5336 5328 5322 5315 5309 5304 5298 5292 5288 5283 5279 5275 5272 5269 5267 5266 5265 5265 5266 5267 5269 5272 5275 5280 5285 5290 5297 5303 5310 5317 5325 5333 5342 5351 5360
Wind_Speed
40 42 44 46 48 49 50 52 53 54 54 53 54 55 57 57 55 53 53 54 54 53 53 52 51 51 50 49 48 46 46 45 44 43 41 39 37 35
38 38 40 42 45 46 48 49 51 54 55 54 55 56 57 57 57 56 55 55 55 55 55 54 54 53 52 51 51 49 48 48 47 44 42 40 39 37
38 39 40 41 43 45 47 49 51 53 54 53 54 54 56 57 57 56 56 56 56 56 57 57 56 55 54 54 53 52 51 51 49 47 45 42 40 40
39 40 40 42 43 44 46 48 50 52 53 53 53 54 55 57 56 56 57 57 57 57 58 58 57 57 56 55 55 54 53 52 51 49 47 45 43 42
40 41 42 43 44 45 46 48 49 51 52 52 53 53 54 56 57 57 57 57 58 59 58 58 59 59 57 57 57 56 55 54 53 51 50 49 47 46
40 41 42 43 45 46 47 48 49 50 52 54 55 55 55 56 58 59 58 58 59 61 60 59 60 61 61 60 59 59 58 57 55 54 52 51 50 49
42 43 44 45 46 46 48 49 50 51 53 54 55 56 57 58 59 59 59 59 60 61 62 61 61 62 62 62 61 60 59 58 57 56 55 53 52 51
43 44 46 47 48 49 49 51 52 53 54 55 56 57 58 59 60 60 61 61 60 61 63 62 62 62 62 62 62 62 61 60 60 59 57 55 54 53
44 46 48 49 50 51 53 55 55 56 57 58 58 59 59 61 62 61 61 62 61 62 63 63 63 62 63 64 63 63 63 62 62 62 60 59 58 56
46 48 50 51 53 54 55 56 58 59 59 60 61 61 62 62 63 64 64 63 64 64 65 65 65 65 64 65 65 65 65 64 63 63 62 61 60 59
48 50 52 53 55 56 57 58 59 60 61 62 62 63 63 64 65 66 67 67 66 67 69 68 67 67 67 66 67 68 68 67 66 65 64 63 62 62
51 52 54 56 57 58 59 60 60 60 61 61 62 62 63 63 64 66 67 68 68 68 70 71 70 69 69 68 68 68 69 70 70 69 67 66 65 64
52 53 55 57 58 59 59 60 60 60 60 60 61 62 62 63 63 64 66 67 67 67 69 71 71 70 70 69 68 68 69 70 71 71 70 69 68 66
52 54 55 56 57 58 58 58 58 58 58 58 59 59 60 61 61 62 63 64 65 65 65 68 69 69 69 69 67 67 69 70 71 71 71 71 71 69
53 54 55 55 56 56 56 56 56 56 56 56 56 56 57 58 58 57 58 59 59 60 61 63 65 66 67 66 66 66 67 68 69 70 70 70 70 70
54 54 54 54 54 53 53 53 54 54 54 53 53 52 53 53 54 54 54 55 54 55 57 59 60 62 63 63 62 62 63 64 65 66 66 67 67 67
54 54 53 52 52 51 51 51 51 51 51 50 49 48 48 49 50 51 52 52 52 52 52 54 55 57 58 58 58 58 59 60 61 62 63 63 64 64
53 52 51 50 50 49 49 49 49 49 48 46 45 45 45 46 47 48 49 49 49 48 48 49 51 52 53 53 53 53 55 56 57 57 58 60 61 62
51 50 49 48 48 47 46 46 45 45 44 43 42 41 42 42 42 42 43 42 42 42 43 44 46 48 49 49 49 50 50 51 53 54 55 56 57 58
50 48 47 46 46 45 44 43 42 41 40 39 38 38 38 38 37 36 36 36 36 37 38 40 41 42 43 44 45 46 47 48 49 49 51 52 53 54
48 47 46 44 43 42 41 40 39 38 37 37 36 35 35 33 31 31 30 31 32 32 33 34 36 37 38 39 41 42 44 45 45 45 47 49 50 52
45 44 43 42 41 40 38 37 36 35 34 33 32 31 29 27 26 26 26 26 27 27 28 29 30 32 34 35 36 38 41 43 43 43 44 45 46 48
43 41 40 39 38 37 36 35 34 32 30 29 28 26 24 22 22 22 21 22 22 22 23 24 25 26 28 30 31 34 36 39 41 41 41 42 42 44
Wind_Direction
264 264 263 264 265 265 264 263 263 261 260 260 261 260 259 259 259 259 259 259 259 260 259 259 259 257 256 256 256 256 257 256 257 258 258 257 256 255
267 267 266 266 267 267 265 264 264 263 262 261 261 260 259 259 259 259 260 260 259 258 257 258 258 256 255 254 254 255 256 255 256 256 255 255 254 253
268 269 270 270 269 269 267 266 265 265 264 263 263 262 260 260 259 259 260 260 258 257 257 257 256 254 253 253 253 254 255 254 254 254 253 253 252 252
272 272 272 272 271 272 271 268 267 267 267 265 264 263 261 260 260 259 258 258 258 258 257 256 254 253 252 251 252 252 253 253 252 252 253 251 250 250
275 275 274 274 274 273 272 271 271 270 269 268 266 264 263 262 261 260 259 258 257 257 256 255 253 252 250 250 251 251 250 251 250 250 251 251 250 249
276 276 276 276 275 275 274 274 273 272 270 269 267 265 264 263 261 260 259 258 256 255 255 254 253 252 251 250 250 249 249 250 249 250 251 250 249 248
280 279 278 278 277 277 276 275 275 274 272 270 269 267 266 264 263 262 260 257 256 255 254 254 254 253 252 251 249 249 248 248 248 248 249 249 249 248
282 281 281 280 279 279 278 277 276 275 273 272 270 269 267 265 263 262 260 258 257 255 254 254 253 252 251 251 250 249 248 248 248 248 248 248 248 246
284 283 283 282 282 281 280 279 278 276 274 273 271 270 269 267 265 264 261 259 258 256 254 253 252 250 250 250 249 248 248 248 249 248 248 247 246 245
287 286 286 284 283 283 282 281 280 278 277 275 274 272 270 269 267 265 262 259 258 257 255 253 252 250 249 249 248 248 249 248 248 248 247 246 246 245
291 290 288 287 285 284 283 283 281 280 278 277 275 273 271 269 267 265 263 260 258 258 257 255 253 251 250 249 248 247 247 247 247 246 245 245 245 244
294 293 292 291 290 288 287 285 283 281 280 278 276 274 272 270 268 266 263 260 258 257 256 254 253 251 249 249 249 248 247 246 245 244 244 244 244 244
297 296 296 295 293 292 290 288 286 284 282 280 278 276 274 272 270 268 265 262 259 257 256 254 252 251 250 247 247 247 246 245 244 243 243 242 242 242
300 299 298 297 296 294 292 290 288 286 284 283 280 278 275 273 272 270 267 264 260 258 256 255 253 250 250 247 246 245 245 244 243 242 242 242 241 241
304 302 301 300 298 296 294 292 290 289 288 286 283 280 277 275 273 271 268 265 262 259 257 255 253 250 249 248 246 245 244 243 243 242 241 241 240 239
306 305 304 302 301 299 297 295 294 292 291 288 286 283 279 276 273 271 268 266 263 261 259 256 253 250 249 247 247 244 243 242 241 241 240 239 238 238
307 306 305 304 303 301 299 298 296 295 293 291 288 285 281 278 275 272 269 266 264 261 258 256 253 250 248 246 244 243 242 240 238 238 238 237 236 235
309 308 307 306 305 303 301 300 298 297 295 293 290 288 285 282 278 275 271 268 265 260 257 254 251 249 247 244 242 240 240 238 236 235 236 234 233 232
310 309 308 308 307 306 304 303 301 299 297 295 293 291 289 286 282 277 273 267 263 259 255 252 250 247 246 243 239 238 237 235 234 233 233 232 230 229
312 311 310 309 309 307 307 305 304 303 300 298 296 295 293 289 285 279 273 267 263 259 255 251 248 245 243 239 236 233 232 231 230 230 230 228 227 226
313 312 312 311 310 309 308 307 306 305 303 301 299 297 296 292 286 279 273 268 264 260 254 250 246 242 239 236 233 231 229 227 226 226 226 225 224 223
314 314 313 313 312 311 310 309 308 307 305 303 302 300 297 293 288 281 275 269 265 260 253 248 243 237 234 232 230 226 224 223 223 223 223 222 222 221
316 316 315 314 314 313 312 310 310 310 308 306 305 302 298 295 291 285 278 270 265 258 251 244 237 233 230 226 224 222 220 220 220 218 218 218 218 217